Regional Weather Roundup
Issued by NWS Midland/Odessa, TX

Skip options and go directly to product.
Home | Oldest Version | Previous Version | Current Version | All | Text Only | Save Text | Print | Product List | Glossary On

Skip product version selection by date and time.   
023
ASUS44 KMAF 021410
RWRMAF
MIDLAND AREA WEATHER ROUNDUP
NATIONAL WEATHER SERVICE MIDLAND TX
900 AM CDT THU OCT 02 2014

...IN SOUTHWEST TEXAS AND SOUTHEAST NEW MEXICO...

CITY           SKY/WX    TMP DP  RH WIND       PRES   REMARKS
ALPINE         SUNNY     67  44  43 SW3       30.12R
ANDREWS        FAIR      66  43  43 NW14G21   29.96R
ARTESIA        NOT AVBL
BIG SPRING     SUNNY     71  66  82 SW7       29.92R
CARLSBAD       SUNNY     61  44  53 N9        30.00R
DRYDEN           N/A     75  67  76 NE5       29.90R
FORT STOCKTON  MOSUNNY   71  46  40 SW8       29.97R
GUAD PASS      SUNNY     63  34  33 W7        30.12R
HOBBS          SUNNY     61  45  55 NW10      30.01R
MARFA          SUNNY     64  43  45 NE5       30.10R
MIDLAND AIRPK  MOSUNNY   73  60  63 W8        29.93R
MIDLAND INTL   SUNNY     71  61  70 SW10      29.92R
ODESSA         PTSUNNY   69  59  70 W6        29.94R
PECOS          SUNNY     65  48  53 W13       29.95R
PRESIDIO       FAIR      68  52  55 N3        29.97R
SEMINOLE       SUNNY     62  45  53 N16G23    29.99R
SNYDER         PTSUNNY   69  66  89 W7        29.89R
WINK           SUNNY     64  51  62 N3        29.94R
$$
...OTHER STATIONS IN TEXAS...

CITY           SKY/WX    TMP DP  RH WIND       PRES   REMARKS
ABILENE        SUNNY     78  68  71 SW15G25   29.83F
AMARILLO       SUNNY     53  45  74 N25G33    29.99R
AUSTIN         CLOUDY    80  75  84 S13G20    29.86R
BROWNSVILLE    MOSUNNY   82  82 100 S9        29.87R
CORPUS CHRISTI PTSUNNY   83  79  88 S10       29.87R
DALLAS FTW     MOSUNNY   81  72  74 S13G21    29.82R
DEL RIO        CLOUDY    78  74  87 SE6       29.84R
EL PASO        SUNNY     70  33  25 CALM      30.05R
HOUSTON INT    PTSUNNY   82  77  83 VRB7      29.90R
LUBBOCK        MOSUNNY   58  48  69 N21       29.94R
SAN ANGELO     MOSUNNY   78  70  76 SW10      29.87R
SAN ANTONIO    CLOUDY    80  74  81 S9        29.88R
WACO           PTSUNNY   79  74  84 S12       29.85R
WICHITA FALLS  NOT AVBL
$$
...OTHER LOCATIONS IN NEW MEXICO...

CITY           SKY/WX    TMP DP  RH WIND       PRES   REMARKS
ALAMAGORDO     SUNNY     59  37  44 N12       30.08R
ALBUQUERQUE    SUNNY     52  22  30 N7        30.20R
CANNON AFB     SUNNY     55  45  67 N20G30    30.04R
CLOVIS           N/A     54  45  71 N21G29    30.07R
HOLLOMAN AFB   SUNNY     60  38  44 N12       30.07R
ROSWELL        SUNNY     59  45  59 N5        30.03R
RUIDOSO        SUNNY     50  34  53 NW13      30.19R
SANTA FE       SUNNY     45  23  42 N7        30.17R
TRUTH OR CONSE SUNNY     60  37  42 NW9       30.13R
TUCUMCARI      SUNNY     57  42  57 N8        30.08R
$$

USA.gov is the U.S. government's official web portal to all federal, state and local government web resources and services.